This is the latest recevied weather packets stored in our database for station/object KJ4EWA. If no packets are shown the sender has not sent any weather packets the latest 10 day(s).
| Time | Temp. | Humidity | Pressure | Rain* | Wind** | Luminosity | Snow |
|---|---|---|---|---|---|---|---|
| 1777908784 | 24.44° C | 46% | 1021.4 hPa | 0 mm | - | 699 W/m² | - |
| 1777908481 | 24.44° C | 53% | 1021.5 hPa | 0 mm | - | 692 W/m² | - |
| 1777908177 | 23.89° C | 48% | 1021.6 hPa | 0 mm | - | 685 W/m² | - |
| 1777907874 | 23.89° C | 49% | 1021.6 hPa | 0 mm | - | 659 W/m² | - |
| 1777907569 | 24.44° C | 49% | 1021.7 hPa | 0 mm | - | 586 W/m² | - |
| 1777907265 | 24.44° C | 52% | 1021.5 hPa | 0 mm | - | 710 W/m² | - |
| 1777906962 | 23.89° C | 54% | 1021.3 hPa | 0 mm | - | 641 W/m² | - |
| 1777906660 | 23.33° C | 52% | 1021.8 hPa | 0 mm | - | 661 W/m² | - |
| 1777906356 | 22.78° C | 53% | 1021.7 hPa | 0 mm | - | 734 W/m² | - |
| 1777906053 | 22.78° C | 53% | 1021.8 hPa | 0 mm | - | 525 W/m² | - |
| 1777905749 | 22.78° C | 55% | 1021.7 hPa | 0 mm | - | 651 W/m² | - |
| 1777905446 | 22.78° C | 59% | 1021.7 hPa | 0 mm | - | 639 W/m² | - |
| 1777905144 | 22.22° C | 58% | 1021.8 hPa | 0 mm | - | 745 W/m² | - |
| 1777904841 | 22.78° C | 60% | 1021.8 hPa | 0 mm | - | 965 W/m² | - |
| 1777904538 | 22.22° C | 58% | 1022 hPa | 0 mm | - | 1231 W/m² | - |
| 1777904235 | 20.56° C | 59% | 1021.8 hPa | 0 mm | - | 270 W/m² | - |
| 1777903932 | 20° C | 59% | 1021.6 hPa | 0 mm | - | 187 W/m² | - |
| 1777903629 | 19.44° C | 69% | 1021.9 hPa | 0.51 mm | - | 67 W/m² | - |
| 1777903324 | 18.89° C | 71% | 1022.1 hPa | 0 mm | - | 46 W/m² | - |
| 1777903021 | 18.89° C | 71% | 1022 hPa | 0 mm | - | 48 W/m² | - |
| 1777902717 | 17.78° C | 79% | 1021.9 hPa | 0 mm | - | 105 W/m² | - |
| 1777902415 | 16.67° C | 86% | 1021.9 hPa | 0 mm | - | 88 W/m² | - |
| 1777902111 | 15° C | 99% | 1022.1 hPa | 0 mm | - | 139 W/m² | - |
| 1777901810 | 13.89° C | 99% | 1022 hPa | 0 mm | - | 279 W/m² | - |
| 1777901507 | 13.89° C | 99% | 1022 hPa | 0 mm | - | 43 W/m² | - |
* Rain latest hour (hover to see other rain measurements)
** Current wind speed in m/s (hover to see current wind gust speed)